x

Fairport, Mi (fptm4) Weather Station

8:40am - Sat 20th Sep 2014 All times are CDT. -5 hours from GMT.

  • Wind
    14mph, 18mph gusts
  • Air Temp 60°f
  • Sea Pressure 1003.4mb
  • Fairport, Mi
  • Fairport, Mi

More Historic Weather Station data

Upgrade to MSW Pro to gain access to the past 30 days of data for over 8000 Wavebouys and Weather Stations around the globe.

Join Pro

Comparision Forecast

View Surf forecast
   
Sat 09/20 8:40am 14 18 mph 1003.4mb 60f
8:30am 13 17 mph 1003.4mb 62f
8:20am 16 21 mph 1003.4mb 63f
8:10am 16 22 mph 1003.4mb 62f
8:00am 15 21 mph 1003.4mb 62f
7:40am 17 22 mph 1004.1mb 62f
7:30am 16 21 mph 1004.1mb 62f
7:20am 15 23 mph 1004.1mb 61f
7:10am 18 23 mph 1003.7mb 61f
7:00am 20 25 mph 1004.1mb 61f
6:40am 21 24 mph 1004.4mb 62f
6:30am 20 23 mph 1004.7mb 60f
6:20am 16 21 mph 1004.7mb 58f
6:10am 16 21 mph 1005.1mb 58f
6:00am 16 21 mph 1004.7mb 57f
5:40am 17 21 mph 1005.1mb 58f
5:30am 17 22 mph 1005.4mb 58f
5:20am 18 21 mph 1005.4mb 58f
5:10am 16 22 mph 1005.4mb 57f
5:00am 14 22 mph 1005.1mb 58f
4:40am 21 26 mph 1005.1mb 58f
4:30am 18 21 mph 1005.4mb 58f
4:20am 20 24 mph 1005.4mb 58f
4:10am 18 22 mph 1005.4mb 58f
4:00am 20 22 mph 1005.4mb 58f
3:40am 22 26 mph 1005.8mb 59f
3:30am 22 25 mph 1006.1mb 59f
3:20am 22 26 mph 1006.1mb 59f
3:10am 22 24 mph 1006.1mb 59f
3:00am 21 26 mph 1005.8mb 59f
2:40am 22 28 mph 1006.1mb 60f
2:30am 22 29 mph 1006.4mb 60f
2:20am 24 30 mph 1006.4mb 60f
2:16am 24 30 mph 1006.4mb 60f
2:10am 24 29 mph 1006.8mb 60f
2:00am 24 30 mph 1006.8mb 60f
1:40am 22 26 mph 1007.1mb 59f
1:30am 21 29 mph 1006.8mb 59f
1:20am 23 29 mph 1006.8mb 59f
1:13am 22 29 mph 1006.8mb 59f
1:10am 22 29 mph 1006.8mb 59f
1:00am 25 31 mph 1006.8mb 59f
12:40am 25 32 mph 1007.1mb 59f
12:30am 26 34 mph 1007.1mb 60f
12:20am 29 34 mph 1007.5mb 60f
12:10am 28 36 mph 1007.5mb 60f
12:05am 28 30 mph 1007.1mb 60f
12:00am 26 34 mph 1007.5mb 60f
Fri 09/19 11:40pm 28 36 mph 1007.8mb 60f
11:30pm 29 36 mph 1007.8mb 60f
11:20pm 28 34 mph 1008.1mb 60f
11:10pm 28 34 mph 1008.1mb 60f
11:04pm 26 30 mph 1008.5mb 60f
11:00pm 30 36 mph 1008.1mb 60f
10:40pm 28 34 mph 1008.5mb 60f
10:30pm 28 33 mph 1008.1mb 60f
10:20pm 28 36 mph 1007.8mb 60f
10:10pm 25 33 mph 1008.1mb 60f
10:03pm 29 30 mph 1007.8mb 60f
10:00pm 28 37 mph 1008.1mb 60f
9:40pm 29 36 mph 1008.1mb 60f
9:30pm 29 33 mph 1008.5mb 60f
9:20pm 28 32 mph 1008.5mb 60f
9:10pm 25 33 mph 1009.1mb 61f
9:00pm 25 32 mph 1009.5mb 61f
8:40pm 25 32 mph 1009.8mb 61f
8:30pm 22 29 mph 1010.2mb 61f
8:20pm 24 31 mph 1010.2mb 61f
8:10pm 22 31 mph 1009.5mb 61f
8:02pm 26 30 mph 1009.5mb 61f
8:00pm 28 33 mph 1009.5mb 61f
7:40pm 25 30 mph 1009.1mb 61f
7:30pm 25 31 mph 1009.5mb 61f
7:20pm 26 31 mph 1009.8mb 61f
7:10pm 28 34 mph 1009.5mb 61f
7:02pm 29 30 mph 1009.1mb 61f
7:00pm 28 34 mph 1009.5mb 61f
6:40pm 29 36 mph 1009.5mb 61f
6:30pm 26 34 mph 1009.8mb 61f
6:20pm 29 33 mph 1009.8mb 61f
6:10pm 28 33 mph 1010.2mb 61f
6:01pm 26 30 mph 1010.5mb 61f
6:00pm 26 31 mph 1010.5mb 61f
5:40pm 28 32 mph 1010.8mb 61f
5:30pm 26 33 mph 1010.8mb 61f
5:20pm 24 31 mph 1011.2mb 60f
5:10pm 26 30 mph 1011.2mb 60f
5:01pm 24 30 mph 1011.2mb 60f
5:00pm 24 32 mph 1011.2mb 60f
4:40pm 24 31 mph 1011.9mb 60f
4:30pm 25 33 mph 1011.5mb 60f
4:20pm 28 34 mph 1011.5mb 60f
4:10pm 26 33 mph 1011.5mb 59f
4:00pm 25 31 mph 1011.5mb 59f
3:59pm 25 31 mph 1011.5mb 59f
3:40pm 23 29 mph 1012.5mb 59f
3:30pm 24 30 mph 1012.2mb 58f
3:20pm 25 30 mph 1012.5mb 58f
3:10pm 23 30 mph 1013.2mb 58f
3:00pm 25 30 mph 1013.2mb 58f
2:58pm 23 30 mph 1013.2mb 58f
2:40pm 26 33 mph 1013.9mb 58f
2:30pm 26 33 mph 1013.9mb 58f
2:20pm 26 33 mph 1014.2mb 58f
2:10pm 28 34 mph 1014.6mb 58f
2:00pm 25 32 mph 1014.9mb 58f
1:48pm 26 30 mph 1014.9mb 58f
1:40pm 28 36 mph 1014.9mb 58f
1:30pm 29 33 mph 1015.2mb 58f
1:20pm 28 34 mph 1015.6mb 58f
1:10pm 26 30 mph 1016.3mb 58f
1:00pm 25 30 mph 1016.6mb 58f
12:48pm 25 29 mph 1016.6mb 58f
12:40pm 24 32 mph 1016.6mb 58f
12:30pm 26 31 mph 1016.6mb 58f
12:20pm 23 29 mph 1016.9mb 58f
12:10pm 25 33 mph 1017.3mb 58f
12:00pm 25 30 mph 1017.3mb 58f
11:44am 24 29 mph 1017.6mb 58f
11:40am 23 29 mph 1017.6mb 58f
11:30am 24 29 mph 1017.9mb 58f
11:20am 22 29 mph 1017.6mb 58f
11:10am 23 30 mph 1017.9mb 58f
11:00am 24 28 mph 1017.6mb 57f
10:40am 23 29 mph 1018.3mb 57f
10:30am 23 28 mph 1018.6mb 57f
10:20am 22 28 mph 1018.6mb 57f
10:10am 21 25 mph 1018.6mb 57f
10:00am 20 24 mph 1018.6mb 56f
9:40am 21 24 mph 1019mb 56f
9:30am 20 24 mph 1019.3mb 56f
9:20am 21 23 mph 1019.3mb 56f
9:10am 20 23 mph 1019.3mb 55f
9:00am 20 23 mph 1019.6mb 55f
8:50am 20 25 mph 1019.6mb 55f
8:40am 20 23 mph 1019.6mb 56f
8:30am 20 24 mph 1020mb 55f
8:20am 21 24 mph 1020mb 56f
8:10am 21 24 mph 1020mb 56f
8:00am 21 24 mph 1020mb 56f
7:50am 20 24 mph 1020.3mb 56f
7:40am 21 25 mph 1020.3mb 56f
7:30am 20 23 mph 1020.3mb 56f
7:20am 21 26 mph 1020.3mb 56f
7:10am 20 23 mph 1020.3mb 56f
7:00am 20 22 mph 1020.3mb 56f
6:50am 17 24 mph 1020.3mb 56f
6:40am 18 23 mph 1020.7mb 56f
6:30am 17 20 mph 1020.7mb 56f
6:20am 17 23 mph 1020.7mb 56f
6:10am 18 21 mph 1021mb 56f
6:00am 18 22 mph 1020.7mb 56f
5:50am 17 23 mph 1020.3mb 56f
5:40am 18 23 mph 1020.3mb 56f
5:30am 18 21 mph 1020.3mb 56f
5:20am 16 18 mph 1020.3mb 56f
5:10am 17 20 mph 1020.3mb 56f
5:00am 14 16 mph 1020.3mb 57f
4:50am 13 15 mph 1020.3mb 57f
4:40am 13 14 mph 1020.3mb 57f
4:30am 13 15 mph 1020.3mb 56f
4:20am 11 13 mph 1020.3mb 56f
4:10am 13 15 mph 1020.7mb 56f
4:00am 9 16 mph 1020.7mb 56f
3:50am 14 15 mph 1020.7mb 56f
3:40am 11 16 mph 1020.3mb 56f
3:30am 14 15 mph 1020.3mb 56f
3:20am 13 15 mph 1020.3mb 56f
3:10am 11 15 mph 1020.7mb 56f
3:00am 14 15 mph 1020.7mb 56f
2:50am 8 9 mph 1021mb 55f
2:40am 7 9 mph 1020.7mb 55f
2:30am 8 10 mph 1020.7mb 55f
2:20am 9 10 mph 1020.7mb 55f
2:10am 9 13 mph 1020.7mb 55f
2:00am 13 15 mph 1021mb 55f
1:50am 9 13 mph 1021mb 55f
1:40am 8 9 mph 1021mb 55f
1:30am 7 8 mph 1021.3mb 55f
1:20am 6 8 mph 1021.3mb 55f
1:10am 6 7 mph 1021.3mb 55f
1:00am 7
mph
1021.3mb 55f
12:50am 7 8 mph 1021.3mb 55f
12:40am 7 8 mph 1021.3mb 54f
12:30am 7 9 mph 1021mb 55f
12:20am 8 9 mph 1021.3mb 54f
12:10am 7 9 mph 1021.3mb 54f
12:00am 6 8 mph 1021.3mb 54f
Thu 09/18 11:50pm 6 8 mph 1021.3mb 54f
11:40pm 1 5 mph 1021.3mb 49f
11:30pm 2 5 mph 1021.7mb 49f
11:20pm 2 5 mph 1021.7mb 49f
11:10pm 1 3 mph 1022mb 48f
11:00pm 1 2 mph 1022mb 49f
10:50pm  -  3 mph 1022mb 48f
10:40pm  -  5 mph 1022mb 50f
10:30pm 3 7 mph 1022mb 51f
10:20pm 5 7 mph 1021.7mb 50f
10:10pm 3 5 mph 1021.7mb 48f
10:00pm 5 6 mph 1021.7mb 48f
9:50pm 2 5 mph 1021.7mb 47f
9:40pm 2 3 mph 1021.7mb 47f
9:30pm 3 5 mph 1021.7mb 47f
9:20pm 3 6 mph 1021.3mb 48f
9:10pm 3 6 mph 1021.3mb 48f
9:00pm 3 5 mph 1021.7mb 47f
8:50pm 3 6 mph 1021.7mb 48f
8:40pm 5 6 mph 1021.3mb 48f
8:30pm 3 5 mph 1021.7mb 48f
8:20pm 3 7 mph 1021.7mb 48f
8:10pm 6
mph
1021.3mb 48f
8:00pm 6
mph
1021.7mb 47f
7:50pm 1 3 mph 1021.7mb 47f
7:40pm 2 3 mph 1021.3mb 47f
7:30pm 2 5 mph 1021.3mb 47f
7:20pm 3 5 mph 1021.3mb 48f
7:10pm 3 5 mph 1021.3mb 49f
7:00pm 3 6 mph 1021.3mb 49f
6:50pm 5
mph
1021.3mb 49f
6:40pm 3 6 mph 1021mb 50f
6:30pm 5 6 mph 1021.3mb 51f
6:20pm 3 7 mph 1021.3mb 51f
6:10pm 6 7 mph 1021.3mb 52f
6:00pm 7 8 mph 1021.7mb 52f
5:50pm 5 7 mph 1022mb 52f
5:40pm 6 7 mph 1021.7mb 52f
5:30pm 6 8 mph 1021.3mb 52f
5:20pm 6 8 mph 1021.3mb 52f
5:10pm 6 8 mph 1021.7mb 52f
5:00pm 6 7 mph 1021.7mb 52f
4:50pm 6 8 mph 1021.7mb 52f
4:40pm 6 8 mph 1021.7mb 52f
4:30pm 7 8 mph 1022mb 51f
4:20pm 7 8 mph 1022mb 51f
4:10pm 7 8 mph 1022mb 51f
4:00pm 7 9 mph 1022mb 51f
3:50pm 7 10 mph 1022mb 51f
3:40pm 7 9 mph 1022mb 51f
3:30pm 7 9 mph 1022mb 52f
3:20pm 6 9 mph 1022mb 52f
3:10pm 8 10 mph 1022.4mb 52f
3:00pm 7 14 mph 1022.4mb 52f
2:50pm 7 13 mph 1022.4mb 52f
2:40pm 8 14 mph 1022.4mb 52f
2:30pm 7 14 mph 1022.4mb 51f
2:20pm 9 13 mph 1022.7mb 52f
2:10pm 5 11 mph 1022.7mb 52f
2:00pm 7 8 mph 1022.7mb 51f
1:50pm 9 15 mph 1023.4mb 52f
1:40pm 7 14 mph 1023mb 51f
1:30pm 5 11 mph 1023mb 51f
1:20pm 6 14 mph 1023.4mb 51f
1:10pm 3 13 mph 1023.4mb 51f
1:00pm 5 10 mph 1023.7mb 52f
12:50pm 3 14 mph 1023.7mb 51f
12:40pm 6 10 mph 1023.7mb 50f
12:30pm 7 13 mph 1023.7mb 51f
12:20pm 8 13 mph 1023.7mb 50f
12:10pm 5 13 mph 1023.7mb 50f
12:00pm 5 11 mph 1023.7mb 50f
11:50am 8 13 mph 1023.7mb 50f
11:40am 6 14 mph 1023.7mb 49f
11:30am 10 13 mph 1023.7mb 49f
11:20am 8 15 mph 1023.4mb 49f
11:10am 10 14 mph 1023.4mb 48f
11:00am 6 10 mph 1023.4mb 49f
10:50am 8 13 mph 1023.4mb 49f
10:40am 6 15 mph 1023.4mb 49f
10:30am 7 15 mph 1023.4mb 48f
10:20am 7 13 mph 1023mb 48f
10:10am 8 13 mph 1023mb 48f
10:00am 7 16 mph 1023mb 48f
9:50am 8 11 mph 1023mb 47f
9:40am 8 13 mph 1023mb 47f
9:30am 9 13 mph 1023mb 47f
9:20am 9 13 mph 1022.7mb 47f
9:10am 6 14 mph 1022.7mb 46f
9:00am 9 13 mph 1022.4mb 46f
8:50am 9 13 mph 1022.7mb 45f
8:40am 6 9 mph 1022.4mb 45f
8:30am 7 10 mph 1022.4mb 44f
8:20am 5 13 mph 1022.7mb 44f
8:10am 5 8 mph 1022.7mb 44f
8:00am 6 10 mph 1022.4mb 43f
7:50am 7 11 mph 1022.4mb 43f
7:40am 6 10 mph 1022.7mb 43f
7:30am 6 14 mph 1022.4mb 42f
7:20am 3 9 mph 1022.4mb 42f
7:10am 6 9 mph 1022.4mb 42f
7:00am 6 8 mph 1022.4mb 42f
6:50am 3 6 mph 1022.7mb 42f
6:40am 3 7 mph 1022.4mb 42f
6:30am 3 8 mph 1022mb 42f
6:20am 5 8 mph 1022mb 42f
6:10am 3 9 mph 1022mb 42f
6:00am 5 11 mph 1022mb 42f
5:50am 7 11 mph 1022.4mb 42f
5:40am 6 13 mph 1022mb 42f
5:30am 7 11 mph 1021.7mb 42f
5:20am 5 9 mph 1021.7mb 42f
5:10am 5 8 mph 1021.7mb 42f
5:00am 5 9 mph 1021.7mb 42f
4:50am 5 9 mph 1021.3mb 42f
4:40am 6 11 mph 1021.3mb 42f
4:30am 6 10 mph 1021.3mb 42f
4:20am 6 9 mph 1021.3mb 42f
4:10am 5 8 mph 1021mb 42f
4:00am 5 11 mph 1021mb 42f
3:50am 6 9 mph 1021.3mb 42f
3:40am 5 10 mph 1021mb 42f
3:30am 5 11 mph 1021mb 42f
3:20am 6 9 mph 1021mb 42f
3:10am 5 11 mph 1021mb 42f
3:00am 6 11 mph 1021mb 42f
2:40am 6 10 mph 1021mb 42f
2:30am 3 11 mph 1020.7mb 42f
2:20am 6 14 mph 1020.7mb 42f
2:10am 6 9 mph 1020.7mb 42f
2:00am 3 9 mph 1020.7mb 42f
1:50am 6 11 mph 1020.7mb 42f
1:40am 5 10 mph 1020.7mb 42f
1:30am 6 13 mph 1020.7mb 42f
1:20am 9 14 mph 1020.7mb 42f
1:10am 5 14 mph 1020.3mb 42f
1:00am 8 13 mph 1020.3mb 42f
12:50am 8 14 mph 1020.3mb 42f
12:40am 7 16 mph 1020.3mb 42f
12:30am 8 16 mph 1020.3mb 43f
12:20am 7 18 mph 1020mb 43f
12:10am 11 18 mph 1020mb 43f
12:00am 9 21 mph 1020mb 43f
Wed 09/17 11:50pm 10 21 mph 1020mb 43f
11:40pm 14 20 mph 1019.6mb 44f
11:30pm 9 17 mph 1019.6mb 44f
11:20pm 10 16 mph 1019.6mb 44f
11:10pm 9 15 mph 1019.6mb 44f
11:00pm 10 17 mph 1019.6mb 44f
10:50pm 11 17 mph 1019.6mb 44f
10:40pm 13 20 mph 1019.3mb 44f
10:30pm 13 21 mph 1019.3mb 44f
10:20pm 6 15 mph 1019mb 45f
10:10pm 11 21 mph 1019.3mb 45f
10:00pm 10 18 mph 1019mb 45f
9:50pm 8 13 mph 1019mb 46f
9:40pm 8 16 mph 1018.6mb 46f
9:30pm 10 15 mph 1018.6mb 46f
9:20pm 7 13 mph 1018.6mb 46f
9:10pm 7 16 mph 1018.3mb 47f
9:00pm 9 18 mph 1018.3mb 47f
8:50pm 11 18 mph 1018.3mb 47f
8:40pm 10 15 mph 1017.9mb 47f
8:30pm 13 20 mph 1017.9mb 47f
8:20pm 10 15 mph 1017.6mb 48f
8:10pm 8 17 mph 1017.6mb 49f
8:00pm 9 17 mph 1017.3mb 49f
7:50pm 8 14 mph 1017.3mb 49f
7:40pm 10 17 mph 1016.9mb 50f
7:30pm 10 18 mph 1016.6mb 50f
7:20pm 10 22 mph 1016.6mb 51f
7:10pm 11 20 mph 1016.3mb 51f
7:00pm 11 17 mph 1016.3mb 52f
6:50pm 11 17 mph 1015.9mb 52f
6:40pm 10 18 mph 1015.9mb 52f
6:30pm 10 18 mph 1015.9mb 52f
6:20pm 9 16 mph 1015.6mb 53f
6:10pm 10 15 mph 1015.6mb 53f
6:00pm 9 22 mph 1015.6mb 54f
5:50pm 10 16 mph 1015.2mb 55f
5:40pm 7 14 mph 1015.2mb 55f
5:30pm 8 18 mph 1015.2mb 56f
5:20pm 13 20 mph 1014.9mb 56f
5:10pm 9 18 mph 1014.9mb 58f
5:00pm 11 18 mph 1014.9mb 59f
4:50pm 8 17 mph 1014.9mb 61f
4:40pm 8 16 mph 1014.6mb 62f
4:30pm 10 18 mph 1014.2mb 61f
4:20pm 10 16 mph 1014.2mb 62f
4:10pm 5 13 mph 1014.2mb 61f
4:00pm 9 14 mph 1013.9mb 60f
3:50pm 13 15 mph 1013.5mb 60f
3:40pm 15 16 mph 1013.2mb 60f
3:30pm 15 16 mph 1013.2mb 60f
3:20pm 14 16 mph 1013.2mb 60f
3:10pm 14 17 mph 1013.2mb 59f
3:00pm 15 17 mph 1013.2mb 59f
2:50pm 14 15 mph 1013.2mb 60f
2:40pm 14 15 mph 1013.2mb 60f
2:30pm 14 16 mph 1013.2mb 60f
2:20pm 15 16 mph 1013.2mb 59f
2:10pm 14 15 mph 1013.2mb 59f
2:00pm 11 14 mph 1013.2mb 60f
1:50pm 10 13 mph 1013.2mb 60f
1:40pm 11 13 mph 1013.2mb 60f
1:30pm 10 13 mph 1013.2mb 60f
1:20pm 10 13 mph 1013.2mb 59f
1:10pm 10 13 mph 1013.2mb 58f
1:00pm 11 13 mph 1013.2mb 58f
12:50pm 11 13 mph 1013.2mb 58f
12:40pm 11 13 mph 1013.2mb 58f
12:30pm 8 9 mph 1013.2mb 59f
12:20pm 9 10 mph 1013.2mb 58f
12:10pm 9 10 mph 1013.5mb 58f
12:00pm 7 8 mph 1013.5mb 60f
11:50am 7 8 mph 1013.9mb 60f
11:40am 7 9 mph 1013.5mb 59f
11:30am 7 8 mph 1013.9mb 60f
11:20am 7 9 mph 1014.2mb 60f
11:10am 7 8 mph 1014.2mb 60f
11:00am 7 10 mph 1014.2mb 60f
10:40am 8 9 mph 1014.6mb 60f
10:30am 7 10 mph 1014.6mb 59f
10:20am 9 11 mph 1014.6mb 59f
10:10am 10 13 mph 1014.6mb 58f
10:00am 10 13 mph 1014.9mb 58f
9:50am 13 15 mph 1014.9mb 58f
9:40am 14 15 mph 1014.9mb 58f
9:30am 15 16 mph 1014.9mb 58f
9:20am 14 17 mph 1014.9mb 58f
9:10am 14 16 mph 1014.9mb 58f
9:00am 14 16 mph 1014.6mb 58f
8:50am 15 17 mph 1014.9mb 58f
8:40am 15 17 mph 1014.6mb 57f
8:30am 14 17 mph 1014.6mb 58f
8:20am 13 17 mph 1014.6mb 58f
8:10am 13 17 mph 1014.6mb 58f
8:00am 15 17 mph 1014.6mb 58f
7:50am 11 16 mph 1014.6mb 58f
7:40am 10 14 mph 1014.6mb 58f
7:30am 13 16 mph 1014.2mb 58f
7:20am 13 14 mph 1014.2mb 57f
7:10am 14 16 mph 1014.2mb 57f
7:00am 13 16 mph 1014.2mb 56f
6:50am 14 16 mph 1014.6mb 57f
6:40am 14 17 mph 1014.2mb 57f
6:30am 11 15 mph 1014.2mb 56f
6:20am 13 16 mph 1014.2mb 56f
6:10am 11 15 mph 1014.2mb 56f
6:00am 11 16 mph 1014.2mb 56f
5:50am 15 16 mph 1014.2mb 56f
5:40am 13 16 mph 1014.2mb 56f
5:30am 14 17 mph 1014.2mb 57f
5:20am 13 16 mph 1014.2mb 56f
5:10am 13 15 mph 1014.2mb 56f
5:00am 10 14 mph 1014.2mb 57f
4:50am 10 13 mph 1013.9mb 57f
4:40am 11 14 mph 1013.9mb 57f
4:30am 11 13 mph 1013.9mb 57f
4:20am 9 11 mph 1014.2mb 57f
4:10am 9 10 mph 1014.2mb 57f
4:00am 10
mph
1014.2mb 57f
3:50am 8 10 mph 1014.2mb 57f
3:40am 8 9 mph 1014.6mb 56f
3:30am 6 8 mph 1014.6mb 54f
3:20am 2 3 mph 1014.9mb 52f
3:10am 1 2 mph 1014.9mb 52f
3:00am  -  mph 1014.9mb 51f
2:50am  -  2 mph 1015.2mb 51f
2:40am  -  2 mph 1014.9mb 51f
2:30am 3 5 mph 1015.2mb 50f
2:20am 5
mph
1015.2mb 49f
2:10am 5 6 mph 1015.2mb 50f
2:00am 2 5 mph 1015.2mb 49f
1:50am 5 7 mph 1015.6mb 50f
1:40am 1 2 mph 1015.6mb 49f
1:30am 2 3 mph 1015.6mb 50f
1:20am  -  mph 1015.6mb 51f
1:10am  -  mph 1015.6mb 50f
1:00am  -  2 mph 1015.6mb 51f
12:50am 1 2 mph 1015.9mb 50f
12:40am 2 5 mph 1015.6mb 50f
12:30am 2 3 mph 1015.9mb 51f
12:20am  -  2 mph 1015.6mb 52f
12:10am  -  6 mph 1015.6mb 53f
12:00am 6 7 mph 1015.6mb 53f
Tue 09/16 11:50pm 5 7 mph 1015.9mb 53f
11:40pm 6 7 mph 1015.6mb 54f
11:30pm 5 8 mph 1015.6mb 54f
11:20pm 5 8 mph 1015.6mb 54f
11:10pm 5 7 mph 1015.9mb 55f
11:00pm 6 8 mph 1015.9mb 55f
10:50pm 5 8 mph 1015.9mb 55f
10:40pm 5 6 mph 1015.6mb 55f
10:30pm 2 6 mph 1015.6mb 56f
10:20pm 5 6 mph 1015.6mb 57f
10:10pm 5 6 mph 1015.6mb 58f
10:00pm 3 6 mph 1015.6mb 59f
9:50pm 7 11 mph 1015.6mb 60f
9:40pm 10 15 mph 1015.6mb 61f
9:30pm 10 15 mph 1015.6mb 61f
9:20pm 11 14 mph 1015.6mb 60f
9:10pm 7 17 mph 1015.9mb 60f
9:00pm 15 18 mph 1015.2mb 60f
8:50pm 15 18 mph 1015.6mb 61f
8:40pm 14 17 mph 1015.2mb 61f
8:30pm 14 17 mph 1015.2mb 60f
8:20pm 14 18 mph 1015.2mb 60f
8:10pm 15 18 mph 1015.2mb 61f
8:00pm 14 16 mph 1015.2mb 60f
7:50pm 13 14 mph 1015.6mb 60f
7:40pm 11 13 mph 1015.2mb 60f
7:30pm 11 14 mph 1015.2mb 60f
7:20pm 11 15 mph 1015.2mb 59f
7:10pm 13 16 mph 1015.2mb 59f
7:00pm 13 15 mph 1015.2mb 60f
6:50pm 13 15 mph 1015.2mb 60f
6:40pm 13 16 mph 1015.2mb 60f
6:30pm 16 18 mph 1015.2mb 60f
6:20pm 15 18 mph 1015.2mb 61f
6:10pm 16 22 mph 1015.2mb 61f
6:00pm 17 22 mph 1015.2mb 62f
5:50pm 18 23 mph 1015.2mb 62f
5:40pm 20 24 mph 1015.2mb 62f
5:30pm 20 24 mph 1015.2mb 62f
5:20pm 20 24 mph 1015.2mb 62f
5:10pm 20 24 mph 1015.2mb 62f
5:00pm 21 25 mph 1015.6mb 62f
4:50pm 22 25 mph 1015.6mb 62f
4:40pm 18 25 mph 1015.6mb 62f
4:30pm 22 24 mph 1015.6mb 62f
4:20pm 18 24 mph 1015.6mb 62f
4:10pm 20 25 mph 1015.9mb 62f
4:00pm 20 25 mph 1015.9mb 62f
3:50pm 21 25 mph 1016.3mb 61f
3:40pm 18 24 mph 1016.3mb 61f
3:30pm 20 25 mph 1016.3mb 61f
3:20pm 20 23 mph 1016.3mb 61f
3:10pm 20 24 mph 1016.6mb 61f
3:00pm 20 25 mph 1016.6mb 60f
2:50pm 18 24 mph 1016.6mb 60f
2:40pm 20 24 mph 1016.6mb 60f
2:30pm 21 25 mph 1016.6mb 60f